Tracking 20376 objects as of 20-Feb-2020
HD Live streaming from Space Station
objects crossing your sky now
Track the group of recently launched Starlink satellites

CZ-4C DEB

Track CZ-4C DEB now!
10-day predictions


NORAD ID: 43418
Int'l Code: 2014-080G
Perigee: 972.8 km
Apogee: 1,226.5 km
Inclination: 63.4 °
Period: 107.1 minutes
Semi major axis: 7470 km
RCS: Unknown
Launch date: December 10, 2014
Source: People's Republic of China (PRC)
Launch site: Jiuquan Satellite Launch Center, China (JSC)

Note: This is SATELLITE DEBRIS
aabbcc
Your satellite tracking list
Your tracking list is empty




NASA's NSSDC Master Catalog

Two Line Element Set (TLE):
1 43418U 14080G   19363.49709391 -.00000020 +00000-0 +11031-3 0  9999
2 43418 063.4111 271.4309 0169799 002.7814 357.4116 13.44522604227422
Source of the keplerian elements: AFSPC